This is the latest recevied weather packets stored in our database for station/object KC5DAQ-26. If no packets are shown the sender has not sent any weather packets the latest 10 day(s).
| Time | Temp. | Humidity | Pressure | Rain* | Wind** | Luminosity | Snow |
|---|---|---|---|---|---|---|---|
| 1788035312 | 35.56° C | 56% | 1018.4 hPa | 0 mm | - | 851 W/m² | - |
| 1788035251 | 35.56° C | 56% | 1018.5 hPa | 0 mm | - | 867 W/m² | - |
| 1788035192 | 35.56° C | 57% | 1018.4 hPa | 0 mm | - | 867 W/m² | - |
| 1788035142 | 35.56° C | 57% | 1018.5 hPa | 0 mm | - | 867 W/m² | - |
| 1788035072 | 35.56° C | 58% | 1018.5 hPa | 0 mm | - | 863 W/m² | - |
| 1788035013 | 35.56° C | 55% | 1018.5 hPa | 0 mm | - | 856 W/m² | - |
| 1788034953 | 35.56° C | 56% | 1018.5 hPa | 0 mm | - | 856 W/m² | - |
| 1788034891 | 35.56° C | 57% | 1018.5 hPa | 0 mm | - | 858 W/m² | - |
| 1788034832 | 35.56° C | 57% | 1018.5 hPa | 0 mm | - | 860 W/m² | - |
| 1788034773 | 35.56° C | 59% | 1018.5 hPa | 0 mm | - | 865 W/m² | - |
| 1788034713 | 35.56° C | 59% | 1018.6 hPa | 0 mm | - | 869 W/m² | - |
| 1788034652 | 35° C | 60% | 1018.6 hPa | 0 mm | - | 874 W/m² | - |
| 1788034592 | 35° C | 59% | 1018.5 hPa | 0 mm | - | 881 W/m² | - |
| 1788034532 | 35° C | 58% | 1018.5 hPa | 0 mm | - | 884 W/m² | - |
| 1788034472 | 35° C | 57% | 1018.5 hPa | 0 mm | - | 884 W/m² | - |
| 1788034413 | 35° C | 57% | 1018.5 hPa | 0 mm | - | 886 W/m² | - |
| 1788034351 | 35° C | 58% | 1018.7 hPa | 0 mm | - | 814 W/m² | - |
| 1788034292 | 35° C | 61% | 1018.7 hPa | 0 mm | - | 902 W/m² | - |
| 1788034231 | 35° C | 58% | 1018.7 hPa | 0 mm | - | 900 W/m² | - |
| 1788034172 | 35° C | 58% | 1018.7 hPa | 0 mm | - | 909 W/m² | - |
| 1788034111 | 35° C | 57% | 1018.7 hPa | 0 mm | - | 914 W/m² | - |
| 1788034051 | 35° C | 58% | 1018.8 hPa | 0 mm | - | 927 W/m² | - |
| 1788033993 | 35° C | 57% | 1018.8 hPa | 0 mm | - | 935 W/m² | - |
| 1788033933 | 35° C | 56% | 1018.8 hPa | 0 mm | - | 930 W/m² | - |
| 1788033871 | 35° C | 56% | 1018.8 hPa | 0 mm | - | 925 W/m² | - |
* Rain latest hour (hover to see other rain measurements)
** Current wind speed in m/s (hover to see current wind gust speed)